#timestamp,LO_Frequency,Hit 
1503550815.6,286047005.4,N
1503550835.5,286047006.0,N
1503550855.3,286047004.3,N
1503550875.1,286047003.7,N
1503550895.9,286047003.6,N
1503550915.7,286047001.4,N
1503550935.5,286047001.8,N
1503550955.3,286047001.0,N
1503550975.2,286047000.3,N
1503550995.0,286047002.0,N
1503550995.9,286047002.0,N
1503551015.7,286047005.6,N
1503551035.6,286047010.9,N
1503551055.4,286047015.7,N
1503551075.2,286047015.7,N
1503551095.1,286047020.3,N
1503551096.0,286047020.3,N
1503551115.8,286047018.3,N
1503551135.6,286047022.8,N
1503551155.5,286047025.8,N
1503551175.3,286047028.3,N
1503551195.1,286047024.5,N
1503551215.9,286047023.4,N
1503551235.7,286047026.7,N
1503551255.5,286047026.6,N
1503551275.4,286047027.3,N
1503551295.2,286047029.3,N
1503551315.0,286047027.5,N
1503551315.9,286047027.5,N
1503551335.8,286047023.9,N
1503551355.6,286047027.9,N
1503551375.4,286047032.6,P
1503551395.3,286047016.3,N
1503551415.1,286047014.5,N
1503551416.0,286047014.5,N
1503551435.8,286047016.3,N
1503551455.7,286047022.5,P
1503551475.5,286047004.0,N
1503551495.3,286047005.7,N
1503551515.2,286047005.7,N
1503551535.9,286047004.0,N
1503551555.7,286047002.7,N
1503551575.6,286047001.4,N
1503551595.4,286046999.8,N
1503551615.2,286047000.7,N
1503551635.0,286047003.9,N
1503551636.0,286047003.9,N
1503551655.8,286047003.0,N
1503551675.6,286047000.9,N
1503551695.4,286047000.3,N
1503551715.3,286047004.2,N
1503551735.1,286047005.4,N
1503551755.8,286047006.9,N
1503551775.7,286047010.2,N
1503551795.5,286047011.6,N
1503551815.3,286047007.7,N
1503551835.2,286047009.1,N
1503551855.9,286047005.3,N
1503551875.7,286047002.7,N
1503551895.6,286047003.3,N
1503551915.4,286047003.0,N
1503551935.2,286047006.0,N
1503551955.0,286047006.6,N
1503551956.0,286047006.6,N
1503551975.8,286047008.8,N
1503551995.6,286047008.2,N
1503552015.4,286047010.6,N
1503552035.3,286047008.2,N
1503552055.1,286047008.6,N
1503552075.8,286047007.9,N
1503552095.7,286047012.3,P
1503552115.5,286047004.8,N
1503552135.3,286047000.6,N
1503552155.2,286046996.8,N
1503552175.0,286046995.6,N
1503552175.9,286046995.6,N
1503552195.7,286046993.4,N
1503552215.6,286046994.3,N
1503552235.4,286046990.2,N
1503552255.2,286046991.9,N
1503552275.1,286046991.8,N
1503552276.0,286046991.8,N
1503552295.8,286046993.0,N
1503552315.6,286046993.1,N
1503552335.5,286046990.3,N
1503552355.3,286046990.7,N
1503552375.1,286046991.2,N
1503552395.9,286046989.1,N
1503552415.7,286046988.2,N
1503552435.5,286046987.6,N
1503552455.3,286046988.0,N
1503552475.2,286046984.3,N
1503552495.0,286046984.8,N
1503552495.9,286046984.8,N
1503552515.7,286046983.5,N
1503552535.6,286046981.3,N
1503552555.4,286046983.5,N
1503552575.2,286046982.0,N
1503552595.1,286046977.6,P
1503552596.0,286046977.6,P
1503552615.8,286046986.8,N
1503552635.6,286046986.8,N
1503552655.5,286046986.8,N
1503552675.3,286046986.5,N
1503552695.1,286046983.7,P
1503552715.9,286046998.6,N
1503552735.7,286047001.2,N
1503552755.5,286047000.3,N
1503552775.4,286047000.4,N
1503552795.2,286047002.8,N
1503552815.0,286047002.3,N
1503552815.9,286047002.3,N
1503552835.8,286046998.5,N
1503552855.6,286046997.1,N
1503552875.4,286046996.5,N
1503552895.3,286047001.2,N
1503552915.1,286047000.7,N
1503552916.0,286047000.7,N
1503552935.8,286047000.9,N
1503552955.7,286047000.7,N
1503552975.5,286046996.6,N
1503552995.3,286046996.0,N
1503553015.1,286046999.4,N
1503553035.9,286046998.8,N
1503553055.7,286047003.5,N
1503553075.5,286047008.0,N
1503553095.4,286047007.9,N
1503553115.2,286047009.3,N
1503553135.0,286047011.6,N
1503553135.9,286047011.6,N
1503553155.8,286047011.0,N
1503553175.6,286047013.6,N
1503553195.4,286047013.2,N
1503553215.3,286047013.4,N
1503553235.1,286047016.9,N
1503553236.0,286047016.9,N
1503553255.8,286047018.1,N
1503553275.7,286047018.1,N
1503553295.5,286047017.7,N
1503553315.3,286047020.3,N
1503553335.1,286047020.3,N
1503553355.9,286047020.2,N
1503553375.7,286047020.8,N
1503553395.5,286047023.9,N
1503553415.4,286047025.9,P
1503553435.2,286047018.1,N
1503553455.0,286047016.0,N
1503553456.0,286047016.0,N
1503553475.8,286047016.7,P
1503553495.6,286046995.5,P
1503553515.5,286046995.5,N
1503553535.3,286046996.3,N
1503553555.1,286046991.9,N
1503553575.8,286046994.4,N
1503553595.7,286046995.0,N
1503553615.5,286046996.5,N
1503553635.3,286046998.3,N
1503553655.2,286046996.9,N
1503553675.9,286046997.1,N
1503553695.7,286046995.5,N
1503553715.6,286046993.7,N
1503553735.4,286047001.2,N
1503553755.2,286046998.2,N
1503553775.1,286047000.5,N
1503553776.0,286047000.5,N
1503553795.8,286047002.8,N
1503553815.6,286047002.4,N
1503553835.5,286046998.9,N
1503553855.3,286046995.1,N
1503553875.1,286046992.2,N
1503553895.8,286046997.1,N
1503553915.7,286046996.8,N
1503553935.5,286047000.9,N
1503553955.3,286047000.1,N
1503553975.2,286047002.7,N
1503553995.9,286047003.3,N
1503554015.7,286047000.1,N
1503554035.6,286047003.6,N
1503554055.4,286047006.0,N
1503554075.2,286047002.5,N
1503554095.1,286047002.5,N
1503554096.0,286047002.5,N
1503554115.8,286047003.7,N
1503554135.6,286047001.9,N
1503554155.5,286047000.8,N
1503554175.3,286046999.4,N
1503554195.1,286046995.3,N
1503554215.8,286046993.5,N
1503554235.7,286046994.1,N
1503554255.5,286046992.6,N
1503554275.3,286046988.9,N
1503554295.2,286046987.3,P
1503554315.0,286046989.4,N
1503554315.9,286046989.4,N
1503554335.8,286046987.8,N
1503554355.6,286046988.5,N
1503554375.4,286046989.0,N
1503554395.3,286046988.2,P
